Regional Weather Roundup
Issued by NWS

Home | Current Version | Previous Version | Graphics & Text | Print | Product List | Glossary On
Versions: 1 2 3 4 5 6 7 8 9 10 11 12 13 14 15 16 17 18 19 20 21 22 23 24 25 26 27 28 29 30 31 32 33 34 35 36 37 38 39 40 41 42 43 44 45 46 47 48 49 50
000
ASUS43 KLSX 202107
RWRMO

WEATHER SUMMARY FOR MISSOURI
NATIONAL WEATHER SERVICE SPRINGFIELD MO
300 PM CST MON FEB 20 2017

NOTE: "FAIR" INDICATES FEW OR NO CLOUDS BELOW 12,000 FEET WITH NO
       SIGNIFICANT WEATHER AND/OR OBSTRUCTIONS TO VISIBILITY.
       CURRENT SKY AND/OR WEATHER CONDITIONS ARE NOT AVAILABLE FOR
       CHILLICOTHE AND FARMINGTON.

MOZ001>031-035>038-043-044-053-054-202200-
...NORTHERN AND WESTERN MISSOURI...

CITY           SKY/WX    TMP DP  RH WIND       PRES   REMARKS
KANSAS CTY INT CLOUDY    67  52  58 S14       29.81S
KANSAS C DTWN  CLOUDY    69  51  52 SW18G24   29.81S
LEE`S SUMMIT   CLOUDY    68  51  54 SW16G22   29.84S
ST JOSEPH      CLOUDY    66  55  67 SW14      29.80R
CHILLICOTHE      N/A     66  59  78 S14       29.83R
KIRKSVILLE     CLOUDY    67  57  70 SW13G24   29.86R

$$
MOZ066>068-077>081-088>096-101>105-202200-
...SOUTHWEST MISSOURI...

CITY           SKY/WX    TMP DP  RH WIND       PRES   REMARKS
SPRINGFIELD    CLOUDY    69  58  67 SW15      29.89R
JOPLIN         CLOUDY    65  57  75 S14       29.90R
BRANSON        PTSUNNY   68  59  73 S12G17    29.90F

$$
MOZ032>034-039>042-045>050-055>058-069>072-202200-
...CENTRAL MISSOURI...

CITY           SKY/WX    TMP DP  RH WIND       PRES   REMARKS
COLUMBIA       CLOUDY    75  57  53 S23G30    29.86R
JEFFERSON CITY CLOUDY    76  56  49 S12       29.86R
ROLLA          MOSUNNY   76  54  46 S21G31    29.87F
SEDALIA        CLOUDY    69  58  67 SW14      29.88R
WHITEMAN AFB   CLOUDY    66  63  88 W8        29.85R
WARRENSBURG    CLOUDY    64  57  77 SW9       29.86S
OSAGE BEACH    CLOUDY    73  58  59 S10       29.88S

$$
MOZ051-052-059>065-202200-
...EAST CENTRAL MISSOURI...

CITY           SKY/WX    TMP DP  RH WIND       PRES   REMARKS
ST LOUIS INTL  CLOUDY    78  51  38 S16G26    29.92F
SPIRIT OF STL  CLOUDY    76  51  41 SE15G21   29.90F
ST CHARLES     CLOUDY    78  51  38 S22       29.90F

$$
MOZ072>076-082>087-097>100-106>115-202200-
...SOUTH CENTRAL AND SOUTHEAST MISSOURI...

CITY           SKY/WX    TMP DP  RH WIND       PRES   REMARKS
CAPE GIRARDEAU PTSUNNY   71  56  58 S12       30.00S
FARMINGTON     CLOUDY    73  51  46 S17G24    29.96F
POPLAR BLUFF   CLOUDY    73  57  57 SE13      29.97F
WEST PLAINS    CLOUDY    75  58  55 S17G24    29.93F

$$


USA.gov is the U.S. government's official web portal to all federal, state and local government web resources and services.